This is the latest recevied weather packets stored in our database for station/object KM4CBK. If no packets are shown the sender has not sent any weather packets the latest 10 day(s).
| Time | Temp. | Humidity | Pressure | Rain* | Wind** | Luminosity | Snow |
|---|---|---|---|---|---|---|---|
| 1777997341 | 23.33° C | 57% | 1014.8 hPa | 0 mm | - | 651 W/m² | - |
| 1777997039 | 23.89° C | 60% | 1014.8 hPa | 0 mm | - | 574 W/m² | - |
| 1777996735 | 23.33° C | 60% | 1014.8 hPa | 0 mm | - | 590 W/m² | - |
| 1777996431 | 23.89° C | 55% | 1014.8 hPa | 0 mm | - | 571 W/m² | - |
| 1777996128 | 24.44° C | 58% | 1015 hPa | 0 mm | - | 653 W/m² | - |
| 1777995824 | 23.33° C | 56% | 1015 hPa | 0 mm | - | 358 W/m² | - |
| 1777995521 | 23.89° C | 57% | 1014.8 hPa | 0 mm | - | 623 W/m² | - |
| 1777995218 | 23.89° C | 57% | 1015 hPa | 0 mm | - | 681 W/m² | - |
| 1777994915 | 23.89° C | 59% | 1015.1 hPa | 0 mm | - | 657 W/m² | - |
| 1777994611 | 22.78° C | 61% | 1015.3 hPa | 0 mm | - | 598 W/m² | - |
| 1777994306 | 23.33° C | 61% | 1015.2 hPa | 0 mm | - | 538 W/m² | - |
| 1777994003 | 22.78° C | 61% | 1015.1 hPa | 0 mm | - | 599 W/m² | - |
| 1777993700 | 22.78° C | 65% | 1015.1 hPa | 0 mm | - | 568 W/m² | - |
| 1777993397 | 22.78° C | 65% | 1014.9 hPa | 0 mm | - | 525 W/m² | - |
| 1777993091 | 22.78° C | 65% | 1015.2 hPa | 0 mm | - | 701 W/m² | - |
| 1777992790 | 22.22° C | 67% | 1015.1 hPa | 0 mm | - | 673 W/m² | - |
| 1777992487 | 21.11° C | 70% | 1015.4 hPa | 0 mm | - | 564 W/m² | - |
| 1777992186 | 21.11° C | 69% | 1015.2 hPa | 0 mm | - | 267 W/m² | - |
| 1777991882 | 20.56° C | 72% | 1015.3 hPa | 0 mm | - | 236 W/m² | - |
| 1777991580 | 20.56° C | 69% | 1015.1 hPa | 0 mm | - | 406 W/m² | - |
| 1777991276 | 21.11° C | 69% | 1015 hPa | 0 mm | - | 365 W/m² | - |
| 1777990974 | 20.56° C | 70% | 1015.1 hPa | 0 mm | - | 399 W/m² | - |
| 1777990671 | 20.56° C | 71% | 1015.1 hPa | 0 mm | - | 542 W/m² | - |
| 1777990369 | 20.56° C | 73% | 1014.7 hPa | 0 mm | - | 399 W/m² | - |
| 1777990064 | 20° C | 75% | 1014.8 hPa | 0 mm | - | 385 W/m² | - |
* Rain latest hour (hover to see other rain measurements)
** Current wind speed in m/s (hover to see current wind gust speed)